Regional Weather Roundup
Issued by NWS Green Bay, WI

Home | Current Version | Previous Version | Text Only | Print | Product List | Glossary On
Versions: 1 2 3 4 5 6 7 8 9 10 11 12 13 14 15 16 17 18 19 20 21 22 23 24 25 26 27 28 29 30 31 32 33 34 35 36 37 38 39 40 41 42 43 44 45 46 47 48 49 50
000
ASUS43 KGRB 020710
RWRGRB

NORTH-CENTRAL AND NORTHEAST WISCONSIN REGIONAL WEATHER ROUNDUP
NATIONAL WEATHER SERVICE GREEN BAY WI
200 AM CDT THU OCT 02 2014

WIZ005-009-010>012-018-019-020800-
NORTH CENTRAL WISCONSIN

CITY           SKY/WX    TMP DP  RH WIND       PRES   REMARKS
IRONWOOD       NOT AVBL
MANITOWISH WTR CLOUDY    54  54 100 S3        29.87S
ARBOR VITAE    CLOUDY    57  55  93 S3        29.88S FOG
EAGLE RIVER    CLOUDY    53  52  98 CALM      29.88S FOG
LAND O LAKES   CLOUDY    54  52  94 S3        29.90R FOG
RHINELANDER    MOCLDY    52  51  97 SE3       29.89S
PHILLIPS       CLOUDY    54  53  97 SE3       29.86S
ANTIGO         CLOUDY    52  52  99 SE6       29.90S FOG
TOMAHAWK       CLOUDY    54  51  92 CALM      29.89R
MERRILL        CLOUDY    55  53  95 CALM      29.88S
$$

WIZ013-073-020800-
NORTHEAST WISCONSIN

CITY           SKY/WX    TMP DP  RH WIND       PRES   REMARKS
IRON MOUNTAIN  CLOUDY    53  51  93 SE5       29.90S
MARINETTE      NOT AVBL
OCONTO         CLOUDY    55  55 100 CALM      29.89S
$$

WIZ017-030-035>037-045-020800-
CENTRAL WISCONSIN

CITY           SKY/WX    TMP DP  RH WIND       PRES   REMARKS
MEDFORD        CLOUDY    54  52  94 CALM      29.86S FOG
WAUSAU         CLOUDY    56  52  86 SE3       29.87S
MOSINEE        CLOUDY    54  54 100 SE3       29.88S
MARSHFIELD     CLOUDY    58  54  86 E5        29.86S
WISC RAPIDS    CLOUDY    57  55  93 CALM      29.87S
STEVENS POINT  CLOUDY    54  52  95 CALM      29.88S FOG
WAUPACA        CLOUDY    58  56  94 CALM      29.88S FOG
SHAWANO        CLOUDY    56  54  91 E3        29.89F FOG
CLINTONVILLE   CLOUDY    54  54 100 CALM      29.89S FOG
$$

WIZ038-039-048-051-020800-
FOX VALLEY

CITY           SKY/WX    TMP DP  RH WIND       PRES   REMARKS
NWS GREEN BAY  CLOUDY    57  55  93 CALM      29.89S
APPLETON       CLOUDY    57  55  94 CALM      29.87F
OSHKOSH        LGT RAIN  59  56  89 SE6       29.86F
FOND DU LAC    CLOUDY    59  55  87 SE5       29.86F
$$

WIZ022-050-052-020800-
EAST CENTRAL WISCONSIN

CITY           SKY/WX    TMP DP  RH WIND       PRES   REMARKS
STURGEON BAY   NOT AVBL
MANITOWOC      NOT AVBL
SHEBOYGAN      CLOUDY    61  56  83 S9        29.89S
$$

LMZ563-521-522-541>543-020800-
LAKESHORE

STATION/POSITION TIME  TEMP    WIND        PRES    VSBY  WAVE
                       AIR SEA DIR/SP/G                  HT/PER
                 (UTC) (F)     (DEG/KT/KT) (MB)    (MI)  (FT/S)
SHEBOYGAN LKSHOR 0700   58 56  190/  9/ 10 1012.4F
KEWAUNEE LKSHORE 0700   56     140/  3/  4 1011.7F
NORTHPORT PIER   0700   56     150/  8/ 13 1013.2S
N MID LAKE BUOY  0700   58 58  160/ 10/ 12 1013.5R         2/ 5
S GREEN BAY BUOY 0700   59     VRB 10/ 10  1013.3S
CHAMBERS ISLAND  0700   56     140/  4/  8 1013.2F
MENOMINEE LKSHOR 0700   56     140/  7/ 10 1013.0F
$$


USA.gov is the U.S. government's official web portal to all federal, state and local government web resources and services.